Location: Étang Rond
(42.7927°N, 1.0661°E)
Time: 01:46:23
(UTC+00:00)

NOSS 3-1 (C) - Pass Details

Date: 08 November 2025
Orbit: 619 x 1583 km, 63.4° (Epoch: 01 December)

Event Time Altitude Azimuth Distance (km) Brightness Sun altitude
Exits shadow 04:27:29 75° 287° (WNW) 739 2.7 -24.3°
Maximum altitude 04:27:38 76° 308° (NW) 739 2.7 -24.3°
Drops below altitude 10° 04:33:06 10° 34° (NE) 2,440 6.0 -23.3°
Sets 04:35:51 0° 36° (NE) 3,523 6.9 -22.8°
